GEFSNGP_850_meantemp_126.txt.gz
Temperature
5 6 6 7 7 8 8 8 8 10 11 13 13 14 14 15 16 15 15 14 14 13 13 14 14 14 14 14 14 14 14 13 13 12 12 12 11 11 11 10 10 10 10 9
5 7 7 7 8 8 8 9 9 10 11 12 13 14 14 14 14 14 14 14 13 13 13 13 14 14 14 14 14 14 13 13 13 12 12 11 11 11 10 10 10 10 9 9
4 6 6 6 8 8 8 9 10 10 11 12 12 12 12 13 13 13 13 13 13 13 13 14 14 14 14 14 14 13 13 13 12 12 12 11 11 10 10 10 9 9 9 9
3 5 4 7 9 10 9 9 10 10 10 11 11 12 13 12 12 12 12 13 13 13 13 13 14 14 14 14 14 13 13 13 13 12 11 11 11 10 10 9 9 9 9 9
3 4 5 8 9 9 9 9 9 9 10 10 11 12 12 12 12 12 12 13 13 13 13 13 13 14 14 13 13 13 13 13 12 12 11 11 10 10 10 9 9 9 9 8
2 3 5 7 9 9 9 8 8 8 9 9 10 10 10 11 12 12 12 13 13 13 13 13 13 13 13 13 13 13 13 13 12 12 11 11 10 10 9 9 9 8 8 8
2 3 5 8 8 9 7 7 7 8 8 8 8 9 10 11 11 12 12 12 13 13 13 13 13 13 13 13 13 13 13 12 12 12 11 11 10 10 9 9 8 8 8 7
3 3 4 7 7 7 6 7 7 7 7 7 8 9 9 10 10 11 11 12 12 12 12 12 13 13 13 13 13 13 12 12 12 11 11 10 10 9 9 8 8 8 7 7
4 4 6 7 7 7 7 7 7 7 7 7 7 8 8 9 9 10 11 11 12 12 12 12 12 13 13 13 13 12 12 12 11 11 10 10 10 9 9 8 8 8 7 7
4 5 6 7 7 7 6 6 6 6 6 7 7 7 8 8 9 9 10 10 11 11 11 11 11 12 13 13 12 12 12 11 11 11 10 9 9 9 8 8 8 7 7 6
3 5 5 6 7 7 6 6 6 6 6 6 6 7 7 7 8 9 9 10 10 10 11 11 11 11 12 12 12 11 11 11 10 10 10 9 8 8 8 8 8 8 7 7
3 5 5 5 6 6 6 6 6 6 6 6 6 6 6 7 7 8 8 9 9 10 10 10 10 11 11 11 11 11 11 10 10 9 9 8 8 7 7 7 6 6 6 6
5 5 5 5 5 5 5 5 5 5 5 5 6 6 6 6 7 7 8 8 9 9 9 10 10 10 10 10 10 11 11 10 10 9 9 8 8 8 7 6 6 5 5 5
4 4 4 5 5 5 5 5 5 5 5 5 5 6 6 6 6 7 7 8 8 8 9 9 9 9 10 10 10 10 10 10 10 10 9 9 8 8 8 7 6 5 4 4
3 4 4 4 4 4 4 4 4 4 5 5 5 5 5 6 6 6 7 7 7 7 8 8 8 8 9 9 9 9 9 9 9 9 8 8 8 7 7 6 6 5 4 4
3 3 3 3 3 4 4 4 4 4 4 4 5 5 5 5 5 6 6 7 7 7 7 7 8 8 8 8 8 8 8 9 9 8 8 8 7 7 6 6 6 5 4 4
2 2 3 3 3 3 3 3 3 4 4 4 4 4 4 5 5 5 6 6 6 6 6 7 7 7 7 7 8 8 8 7 8 8 8 8 7 7 6 6 5 5 4 3
1 1 1 2 2 2 2 3 3 3 4 4 4 4 4 4 4 5 5 5 5 5 5 6 6 7 7 7 7 7 7 7 7 7 7 7 7 6 6 6 5 4 3 2
0 0 1 1 1 1 2 2 2 3 3 3 3 4 4 4 4 4 4 4 4 4 5 5 6 6 6 6 7 7 7 7 7 7 7 6 6 6 5 5 4 4 3 2
-1 -0 -0 -0 0 0 1 1 2 2 2 3 3 3 3 3 3 3 4 4 4 5 5 5 5 5 6 6 6 6 6 7 7 7 6 6 6 5 5 4 4 3 2 2
-1 -1 -1 -1 -1 -0 0 1 1 1 2 2 3 3 3 3 3 3 3 3 4 4 4 5 5 5 5 6 6 6 6 7 7 7 6 6 6 5 5 4 3 3 2 1
-2 -2 -2 -2 -1 -1 -0 0 1 1 2 2 2 3 3 2 2 2 3 3 4 4 4 4 5 5 5 5 6 6 6 6 6 6 6 6 5 5 4 3 3 2 1 1
-3 -3 -3 -2 -2 -2 -1 -0 0 1 1 1 2 2 2 2 2 2 2 3 3 4 4 5 5 5 5 5 6 6 6 6 6 6 6 5 5 4 4 3 2 2 1 0
-4 -3 -3 -3 -3 -2 -2 -1 -0 0 1 1 1 2 2 2 2 2 3 3 4 4 4 4 4 4 5 5 5 5 5 5 5 5 5 5 4 4 3 2 2 1 0 -0
-4 -4 -4 -3 -3 -3 -2 -1 -1 -0 0 0 1 1 1 2 2 2 3 3 3 3 4 4 4 4 4 5 5 5 5 5 5 5 5 4 4 3 2 2 1 0 -0 -1
-5 -4 -4 -4 -3 -3 -2 -2 -1 -1 -0 -0 -0 0 1 1 1 2 2 2 3 3 3 3 3 4 4 4 4 4 4 4 4 4 4 3 3 2 2 1 0 -0 -1 -2
-5 -5 -4 -4 -3 -3 -2 -2 -2 -1 -1 -0 -0 -0 0 0 1 1 2 2 2 2 3 3 3 3 3 3 3 3 3 4 3 3 3 2 2 1 1 0 -0 -1 -2 -2

GEFSNGP_850_meantemp_132.txt.gz
Temperature
2 3 3 3 4 5 5 5 5 6 7 8 8 8 8 9 9 9 10 11 12 13 14 14 14 15 15 15 15 15 15 14 14 14 14 13 12 12 11 11 11 11 10 10
2 3 4 4 4 5 5 6 6 6 7 8 8 8 8 8 8 8 9 10 11 12 12 13 14 14 14 14 14 14 14 14 14 13 13 12 12 12 11 11 11 10 10 10
1 2 3 3 4 5 5 6 6 6 7 7 7 7 7 8 8 8 8 9 10 11 12 13 13 14 14 14 14 14 14 13 13 13 12 12 12 11 11 11 10 10 10 10
1 1 1 4 5 6 6 6 6 6 7 7 7 7 8 8 7 7 8 8 9 10 11 12 12 13 13 13 13 13 13 13 13 12 12 11 11 11 11 11 10 10 10 10
0 1 1 4 5 5 5 5 5 5 6 6 7 7 7 7 7 7 8 8 9 10 11 11 12 12 12 12 12 12 12 12 12 12 12 11 11 11 11 10 10 10 9 9
0 1 2 4 5 5 5 4 4 5 5 5 5 5 6 7 7 7 7 8 9 10 10 11 11 11 12 12 12 12 12 12 12 12 11 11 11 11 10 10 10 9 9 9
0 1 2 3 4 5 4 3 4 4 4 4 4 5 5 6 6 6 7 7 8 9 10 10 11 11 11 11 11 11 11 11 11 11 11 11 11 10 10 10 9 9 9 8
0 0 2 4 4 4 3 4 4 4 4 4 5 5 5 5 6 6 6 7 8 8 9 10 10 10 10 11 11 11 11 11 11 11 11 10 10 10 10 9 9 9 8 8
1 2 3 4 4 4 5 4 5 5 5 5 5 5 5 5 5 6 6 6 7 8 8 9 9 10 10 10 10 10 11 11 11 10 10 10 10 10 9 9 9 8 8 8
1 2 2 3 4 4 4 4 5 5 5 5 5 5 5 5 5 5 6 6 7 7 8 8 9 9 10 10 10 10 10 10 10 10 10 10 9 9 9 9 8 8 8 8
0 1 2 3 4 4 4 4 4 4 4 4 4 4 5 5 5 5 5 6 6 7 7 8 8 9 9 9 9 10 10 10 10 10 10 9 9 9 9 9 9 9 9 8
1 2 1 2 3 3 3 3 3 3 4 4 4 4 4 5 5 5 5 5 6 6 7 7 8 8 9 9 9 9 9 9 9 9 9 9 9 8 8 8 8 8 8 8
2 2 2 2 2 2 2 3 3 3 3 3 4 4 4 4 5 5 5 5 6 6 7 7 7 8 8 9 9 9 9 9 9 9 9 9 9 8 7 7 7 7 7 7
2 1 1 1 2 2 2 2 2 3 3 3 3 4 4 4 4 4 5 5 6 6 7 7 7 8 8 8 8 9 9 9 9 9 9 9 9 8 8 7 7 6 6 6
1 1 1 1 1 1 2 2 2 2 2 3 3 3 3 3 3 4 5 5 6 6 6 7 7 7 8 8 8 8 8 8 8 8 8 8 8 8 7 7 7 6 5 5
0 0 0 0 0 1 1 1 1 1 2 2 2 3 3 3 3 4 4 5 5 6 6 6 7 7 7 7 7 8 8 8 8 8 8 8 8 7 7 6 6 6 6 5
-1 -1 -1 -1 -0 -0 -0 0 0 1 1 1 2 2 2 2 3 3 4 4 5 6 6 6 6 7 7 7 7 7 7 7 7 7 7 7 7 7 7 6 6 6 5 5
-2 -2 -2 -2 -2 -1 -1 -1 -1 -0 0 1 1 1 2 2 2 3 3 4 4 5 5 6 6 6 6 7 6 7 7 7 6 6 7 7 7 6 6 6 6 5 5 4
-2 -2 -2 -2 -2 -2 -2 -1 -1 -1 -0 -0 0 0 1 1 1 2 2 3 3 4 5 5 6 6 6 6 6 6 6 6 6 6 6 6 6 6 6 5 5 5 5 4
-2 -2 -2 -2 -2 -2 -2 -2 -2 -1 -1 -1 -1 -0 0 1 1 1 2 2 3 4 5 5 5 5 5 5 5 5 5 5 5 5 5 5 5 5 5 5 5 4 4 4
-3 -3 -3 -3 -3 -2 -2 -2 -2 -2 -2 -2 -1 -1 -1 0 0 1 1 2 3 3 4 4 5 5 5 5 5 5 5 5 5 5 5 5 5 5 4 4 4 4 4 3
-4 -4 -4 -4 -4 -3 -3 -3 -3 -3 -3 -2 -2 -2 -1 -0 0 0 1 2 2 3 3 4 4 4 4 4 4 4 4 4 5 5 5 5 5 4 4 4 4 3 3 3
-5 -5 -5 -5 -4 -4 -4 -4 -3 -3 -3 -2 -2 -2 -1 -1 -0 0 1 2 2 2 3 3 4 4 4 4 4 4 4 4 4 4 5 5 5 4 4 4 4 3 3 3
-5 -5 -5 -5 -5 -5 -5 -4 -4 -4 -3 -3 -2 -2 -1 -1 -1 0 1 1 2 2 2 3 3 3 3 4 4 4 4 4 4 4 4 4 4 4 4 4 3 3 3 2
-6 -6 -6 -6 -6 -6 -5 -5 -4 -4 -3 -3 -2 -2 -2 -1 -1 0 0 1 1 2 2 2 2 3 3 3 3 3 3 3 4 4 4 4 4 3 3 3 3 3 2 2
-7 -7 -7 -7 -6 -6 -6 -5 -5 -4 -4 -3 -3 -2 -2 -1 -1 -0 0 0 1 1 1 1 2 2 2 3 3 3 3 3 3 3 3 3 3 3 3 3 2 2 2 2
-7 -7 -7 -7 -7 -6 -6 -5 -5 -5 -4 -4 -3 -3 -2 -1 -1 -1 -0 0 0 0 1 1 1 1 2 2 2 2 3 3 3 3 3 3 3 3 3 2 2 2 1 1

GEFSNGP_850_meantemp_138.txt.gz
Temperature
1 2 2 2 2 2 2 2 3 4 4 5 6 5 6 6 6 6 6 7 7 8 9 9 10 11 12 13 13 13 14 14 14 14 14 14 13 13 13 12 12 12 11 11
0 1 2 2 3 3 3 3 3 3 4 5 5 5 5 5 5 5 5 6 6 7 8 9 10 11 12 12 13 13 13 13 13 13 13 13 13 13 12 12 12 11 11 11
-0 1 1 2 3 3 3 3 3 3 4 5 5 5 5 5 4 4 5 5 6 6 7 8 9 10 11 12 12 12 13 13 13 13 12 12 12 12 12 11 11 11 11 10
-0 -0 0 2 3 3 3 3 3 3 4 4 4 5 5 5 4 4 5 5 5 6 7 8 9 10 10 11 12 12 12 12 12 12 12 12 12 11 11 11 11 11 10 10
-1 -1 0 2 3 3 2 3 3 3 4 4 4 4 4 5 4 4 5 5 5 6 7 7 8 9 10 10 11 11 11 12 12 12 12 12 11 11 11 11 10 10 10 10
-1 -0 1 2 3 3 3 2 3 3 3 3 3 3 3 5 4 4 5 5 5 6 6 7 8 9 9 10 10 10 11 11 12 11 11 11 11 11 11 11 11 10 10 10
-1 -0 1 2 2 3 2 2 3 2 2 2 2 3 4 4 4 4 5 5 5 6 6 6 7 8 8 9 9 10 10 10 11 11 11 11 11 11 10 10 10 10 9 9
-1 -1 1 2 2 2 2 3 3 3 3 3 3 3 4 4 4 4 5 5 5 5 6 6 7 7 8 8 9 9 9 10 10 10 10 10 10 10 10 9 9 9 9 9
-0 1 2 2 2 3 3 2 3 3 3 3 2 3 3 3 3 4 4 5 5 5 5 6 6 7 7 7 8 8 8 9 9 9 9 10 9 9 9 9 9 9 9 8
-1 -0 1 2 2 2 3 2 2 2 2 2 2 2 2 3 3 3 4 4 5 5 5 5 6 6 6 7 7 8 8 8 8 9 9 9 9 9 9 9 9 9 8 8
-1 -0 0 1 2 2 2 2 2 2 2 2 2 2 2 2 3 3 3 4 4 4 5 5 5 6 6 6 6 7 7 7 8 8 8 8 8 8 9 9 9 9 9 9
-0 0 -0 0 2 2 1 1 1 1 1 2 1 1 2 2 2 3 3 4 4 4 4 5 5 5 6 6 6 6 7 7 7 7 8 8 8 8 8 8 8 8 9 8
1 1 1 1 1 1 1 1 1 1 1 1 1 1 1 1 2 2 3 3 3 4 4 4 5 5 5 6 6 6 6 7 7 7 7 7 7 7 7 7 7 7 7 7
0 0 -0 -0 -0 0 -0 -0 0 0 0 0 1 1 1 1 1 2 3 3 3 3 4 4 4 5 5 5 5 6 6 6 6 6 7 7 7 7 7 7 7 6 7 7
-1 -1 -1 -1 -1 -1 -1 -1 -1 -0 -0 0 0 0 0 0 1 2 2 2 2 3 3 4 4 4 5 5 5 5 6 6 6 6 6 7 7 7 7 7 7 6 6 6
-1 -1 -1 -1 -1 -1 -1 -2 -2 -1 -1 -1 -0 -0 -0 -0 0 1 1 2 2 2 3 3 4 4 5 5 5 5 5 6 6 6 6 6 6 6 6 6 6 6 6 6
-2 -2 -2 -2 -2 -2 -2 -2 -2 -2 -2 -1 -1 -1 -1 -0 0 1 1 2 2 2 3 3 4 4 4 5 5 5 5 5 6 6 6 6 6 6 6 6 6 6 6 6
-2 -2 -2 -3 -3 -3 -2 -2 -2 -2 -2 -2 -2 -1 -1 -1 -0 0 1 1 2 2 3 3 3 3 4 4 4 5 5 5 5 6 6 6 6 6 6 6 6 6 5 5
-2 -2 -3 -3 -3 -3 -3 -3 -3 -3 -2 -2 -2 -2 -1 -1 -1 -0 0 0 1 2 2 3 3 3 4 4 4 5 5 5 5 5 5 5 5 5 6 5 5 5 5 4
-3 -3 -3 -3 -3 -3 -3 -3 -3 -3 -3 -3 -2 -2 -2 -1 -1 -1 -1 -0 1 1 2 2 3 3 3 4 4 4 5 5 5 5 5 5 5 5 5 5 5 5 4 4
-4 -4 -4 -4 -4 -4 -4 -4 -4 -4 -3 -3 -3 -3 -2 -2 -1 -1 -1 -1 1 1 1 2 2 3 3 3 4 4 4 4 4 5 5 5 4 4 4 4 4 4 4 4
-4 -5 -5 -5 -5 -5 -4 -4 -4 -4 -4 -4 -4 -3 -3 -3 -2 -2 -1 -1 0 0 1 1 2 2 3 3 3 3 4 4 4 4 4 4 4 4 4 4 4 4 4 4
-5 -5 -6 -6 -6 -6 -5 -5 -5 -5 -5 -4 -4 -4 -4 -3 -3 -3 -2 -1 -1 -0 -0 1 1 2 2 2 3 3 4 4 4 4 4 4 4 4 4 4 4 4 4 3
-6 -6 -6 -6 -7 -6 -6 -5 -5 -5 -5 -5 -5 -4 -4 -4 -3 -2 -2 -1 -1 -1 -0 0 1 1 2 2 2 3 3 3 3 4 4 4 4 4 4 4 4 4 3 3
-7 -7 -7 -7 -7 -7 -7 -7 -6 -6 -6 -5 -5 -4 -4 -4 -3 -3 -2 -2 -1 -1 -1 -0 0 1 1 2 2 3 3 3 3 3 3 3 3 3 3 3 3 3 3 3
-8 -8 -8 -8 -8 -8 -8 -7 -7 -7 -7 -6 -5 -5 -4 -4 -3 -3 -3 -2 -2 -1 -1 -1 -0 0 1 1 2 2 2 3 2 3 3 3 3 3 3 3 3 3 2 2
-8 -8 -8 -8 -8 -8 -8 -8 -8 -7 -7 -7 -6 -5 -5 -4 -4 -3 -3 -2 -2 -1 -1 -1 -0 0 1 1 1 1 2 2 2 2 2 2 2 2 2 2 2 2 2 2

GEFSNGP_850_meantemp_144.txt.gz
Temperature
4 5 4 4 4 5 4 5 5 6 7 8 8 8 8 7 7 7 6 6 6 6 6 6 7 8 8 9 9 10 10 10 11 11 11 11 11 12 12 12 12 12 11 11
3 4 4 4 5 5 5 5 5 6 6 8 8 7 7 7 6 6 6 6 5 5 5 6 6 7 7 8 8 9 10 10 11 11 11 11 11 11 11 11 11 11 11 11
4 4 4 4 5 5 5 5 5 5 6 7 7 7 7 6 5 5 5 5 5 5 5 5 6 6 7 7 8 8 9 9 10 10 10 11 11 11 11 11 11 11 11 11
3 3 3 6 6 5 5 5 5 5 6 6 6 6 5 5 5 5 5 4 4 5 5 5 6 6 6 7 7 8 8 9 9 10 10 10 10 11 11 11 11 10 10 10
2 3 4 6 5 4 4 5 5 5 5 5 5 5 6 5 4 4 4 4 4 4 5 5 5 6 6 6 7 7 8 8 9 9 9 10 10 10 10 10 10 10 10 10
2 2 3 6 5 4 4 4 5 4 4 4 4 5 6 4 3 3 3 3 4 4 5 5 5 5 6 6 6 7 7 8 8 9 9 9 10 10 10 10 10 10 10 10
2 2 4 5 4 4 4 5 4 4 4 4 4 4 4 3 3 3 3 3 4 4 5 5 5 5 5 6 6 6 7 8 8 8 9 9 9 9 9 9 9 10 9 9
2 2 3 5 4 4 4 4 3 3 3 3 3 2 2 2 2 2 3 3 3 4 4 5 5 5 5 5 6 6 7 7 8 8 8 9 8 9 9 9 9 9 9 9
3 4 6 4 4 3 3 3 3 3 2 2 2 2 2 2 2 2 2 2 3 4 4 5 5 5 5 5 5 6 6 7 7 7 8 8 8 8 8 9 9 8 8 8
2 4 4 3 3 2 2 2 2 1 1 1 1 1 1 1 1 1 2 2 3 3 4 4 5 5 5 5 5 6 6 6 6 7 7 7 8 8 8 8 8 8 8 8
2 3 4 3 3 2 2 1 1 1 1 1 1 1 1 1 1 1 1 2 2 3 3 4 4 4 5 5 5 5 5 6 6 6 6 7 7 7 8 8 8 8 8 8
3 4 3 3 2 2 1 1 1 0 0 0 0 -0 -0 0 0 0 1 1 2 2 3 3 4 4 4 5 5 5 5 5 5 6 6 6 6 7 7 8 8 8 8 8
2 2 2 1 1 1 0 -0 -0 -1 -1 -1 -1 -1 -1 -0 -0 0 0 1 1 2 3 3 3 4 4 4 4 5 5 5 5 5 5 6 6 6 6 7 7 7 7 7
1 0 0 0 -0 -0 -1 -1 -1 -1 -1 -1 -1 -1 -1 -1 -0 -0 0 0 1 1 2 3 3 3 3 4 4 4 4 4 5 5 5 5 5 6 6 6 6 6 6 6
-0 -1 -1 -1 -1 -1 -1 -2 -2 -2 -2 -2 -2 -2 -1 -1 -1 -1 -0 0 1 1 2 2 2 3 3 3 3 4 4 4 4 4 5 5 5 5 5 5 5 5 5 5
-1 -1 -1 -2 -2 -2 -2 -2 -2 -2 -2 -2 -2 -2 -2 -1 -1 -1 -0 -0 0 1 1 1 2 2 2 3 3 3 3 4 4 4 4 4 5 5 5 5 5 5 5 5
-2 -2 -2 -2 -2 -2 -2 -3 -3 -3 -3 -3 -3 -2 -2 -2 -1 -1 -1 -0 0 0 1 1 2 2 2 2 2 3 3 3 3 4 4 4 4 4 4 4 4 5 5 5
-2 -2 -3 -3 -3 -3 -3 -3 -3 -3 -3 -3 -3 -3 -3 -2 -2 -1 -1 -0 -0 0 1 1 1 1 2 2 2 2 2 3 3 3 4 4 4 4 4 4 4 4 4 4
-3 -3 -3 -3 -3 -3 -3 -3 -3 -3 -3 -3 -3 -3 -3 -2 -2 -2 -2 -1 -1 -0 0 1 1 1 1 1 2 2 2 2 3 3 3 3 3 4 4 4 4 4 4 4
-3 -3 -3 -4 -4 -4 -4 -4 -4 -4 -4 -4 -4 -3 -3 -3 -3 -2 -2 -2 -1 -1 -0 -0 0 0 1 1 1 1 2 2 2 2 2 2 3 3 3 3 3 4 4 4
-3 -4 -4 -4 -4 -4 -4 -4 -4 -4 -4 -4 -4 -4 -4 -3 -3 -3 -3 -2 -1 -1 -1 -1 -0 -0 0 0 1 1 1 2 2 2 2 2 2 3 3 3 3 4 4 4
-4 -4 -5 -5 -5 -5 -5 -5 -5 -5 -5 -5 -5 -5 -5 -4 -4 -3 -3 -3 -2 -1 -1 -1 -1 -1 -0 -0 0 0 1 1 1 2 2 2 2 2 3 3 3 3 3 4
-5 -5 -5 -6 -6 -6 -5 -5 -6 -6 -6 -5 -5 -5 -5 -5 -5 -4 -4 -3 -2 -2 -2 -2 -1 -1 -1 -0 -0 0 0 1 1 1 2 2 2 2 3 3 3 3 3 3
-5 -6 -6 -6 -6 -6 -6 -6 -6 -6 -6 -6 -6 -6 -6 -6 -5 -5 -4 -4 -3 -3 -2 -2 -1 -1 -1 -1 -0 -0 0 1 1 1 1 2 2 2 2 2 2 3 3 3
-6 -6 -7 -7 -7 -7 -7 -7 -7 -7 -7 -7 -6 -6 -6 -6 -6 -5 -5 -4 -3 -3 -3 -2 -2 -1 -1 -1 -1 -0 -0 0 1 1 1 1 2 2 2 2 2 2 2 3
-7 -7 -7 -8 -8 -8 -8 -8 -8 -8 -8 -7 -7 -6 -6 -6 -6 -5 -5 -4 -4 -3 -3 -2 -2 -2 -1 -1 -1 -1 -1 -0 0 0 1 1 1 2 2 2 2 2 2 2
-8 -8 -8 -8 -8 -8 -8 -9 -9 -8 -8 -8 -8 -7 -7 -6 -6 -5 -5 -4 -4 -3 -3 -3 -2 -2 -2 -1 -1 -1 -1 -1 -0 0 1 1 1 1 2 2 2 2 2 2

GEFSNGP_850_meantemp_150.txt.gz
Temperature
4 5 5 5 5 5 5 5 4 5 6 7 7 7 7 8 7 7 7 7 6 6 6 6 6 6 7 7 7 7 8 8 8 8 9 9 10 10 10 10 11 11 11 10
3 5 5 5 5 6 5 6 5 5 6 7 7 8 7 7 7 6 6 6 6 6 6 6 6 6 6 6 7 7 7 7 8 8 8 9 9 10 10 10 10 10 10 10
2 4 4 4 5 6 6 6 6 5 6 6 6 7 6 6 6 6 5 5 5 5 5 5 5 6 6 6 6 7 7 7 7 8 8 8 8 9 9 10 10 10 10 10
2 3 2 5 7 7 6 6 6 6 6 6 6 6 6 6 6 5 5 4 4 5 5 5 5 5 6 6 6 6 6 7 7 7 7 7 8 8 9 9 9 10 10 10
2 2 3 6 7 6 5 5 6 5 5 6 6 5 6 6 5 4 4 4 4 4 4 5 5 5 5 6 6 6 6 6 6 6 7 7 7 8 8 9 9 9 10 10
1 2 2 5 6 6 5 3 5 5 5 5 5 3 4 5 4 4 4 4 4 4 4 4 5 5 5 5 5 5 6 6 6 6 6 7 7 7 8 8 8 9 9 9
1 1 3 5 6 5 3 3 5 5 5 4 4 3 4 4 4 4 3 3 3 4 4 4 4 4 5 5 5 5 5 6 6 6 6 6 7 7 7 7 8 8 8 9
1 1 2 5 5 4 3 5 5 5 4 4 4 4 3 3 3 3 3 3 3 3 4 4 4 4 4 4 5 5 5 5 6 6 6 6 6 7 7 7 7 8 8 8
2 3 5 6 5 5 5 5 4 4 4 3 3 3 3 2 2 2 2 2 2 2 3 3 3 3 4 4 4 5 5 5 5 5 6 6 6 6 7 7 7 7 7 8
3 3 5 6 6 5 5 4 4 3 3 3 2 2 2 2 2 2 2 2 2 2 2 3 3 3 3 4 4 4 5 5 5 5 5 6 6 6 6 7 7 7 7 7
2 3 4 5 5 5 4 4 3 3 2 2 1 1 1 1 1 1 1 1 1 1 2 2 2 3 3 3 3 4 4 4 5 5 5 5 5 6 6 7 7 7 7 7
2 4 3 4 4 4 3 3 2 2 1 1 1 1 0 0 0 0 1 1 1 1 1 2 2 2 3 3 3 3 4 4 4 5 5 5 5 5 6 6 6 7 7 7
4 4 4 4 3 3 2 2 2 1 1 0 0 -0 -0 -0 -0 -0 -0 0 0 1 1 1 2 2 2 3 3 3 3 4 4 4 4 5 5 5 5 6 6 6 6 6
4 3 3 3 2 2 2 1 1 1 0 -0 -0 -1 -1 -1 -1 -1 -1 -0 -0 0 1 1 1 2 2 2 3 3 3 3 3 4 4 4 4 4 5 5 5 5 6 6
3 3 2 2 2 1 1 1 0 -0 -0 -1 -1 -1 -1 -1 -1 -1 -1 -1 -0 -0 0 1 1 1 2 2 2 3 3 3 3 3 3 3 4 4 4 4 4 5 5 5
2 2 1 1 1 1 0 -0 -1 -1 -1 -1 -1 -2 -2 -2 -2 -1 -1 -1 -1 -0 -0 0 1 1 1 2 2 2 2 3 3 3 3 3 3 3 4 4 4 4 4 4
1 0 0 -0 -0 -0 -1 -1 -1 -2 -2 -2 -2 -2 -2 -2 -2 -2 -1 -1 -1 -1 -0 -0 0 1 1 1 2 2 2 2 2 2 2 3 3 3 3 3 3 4 4 4
0 -0 -0 -1 -1 -1 -2 -2 -2 -2 -2 -2 -3 -3 -3 -3 -3 -2 -2 -2 -1 -1 -1 -0 -0 0 0 1 1 1 1 1 1 2 2 2 2 3 3 3 3 3 3 3
-1 -1 -1 -1 -2 -2 -2 -2 -3 -3 -3 -3 -3 -3 -3 -3 -3 -3 -3 -3 -2 -2 -1 -1 -1 -1 -0 0 0 0 1 1 1 1 1 2 2 2 2 2 2 3 3 3
-2 -2 -2 -2 -2 -3 -3 -3 -3 -3 -3 -4 -4 -4 -4 -4 -4 -4 -4 -3 -3 -3 -2 -2 -2 -1 -1 -1 -0 -0 -0 0 0 0 1 1 1 1 2 2 2 2 2 3
-2 -3 -3 -3 -3 -3 -4 -4 -4 -4 -4 -4 -4 -4 -4 -4 -4 -4 -4 -4 -3 -3 -3 -3 -2 -2 -2 -1 -1 -1 -1 -0 -0 0 0 0 1 1 1 1 1 2 2 2
-3 -4 -4 -4 -4 -4 -4 -4 -5 -5 -5 -5 -5 -5 -5 -5 -5 -5 -4 -4 -4 -4 -4 -3 -3 -3 -2 -2 -2 -1 -1 -1 -0 -0 -0 0 0 0 1 1 1 1 2 2
-4 -4 -4 -5 -5 -5 -5 -5 -5 -5 -5 -5 -5 -5 -6 -6 -6 -6 -5 -4 -5 -4 -4 -4 -3 -3 -3 -2 -2 -2 -1 -1 -1 -0 -0 -0 -0 0 0 0 1 1 1 1
-5 -5 -5 -5 -6 -6 -6 -6 -6 -6 -6 -6 -6 -6 -6 -6 -6 -6 -6 -5 -5 -5 -4 -4 -4 -3 -3 -2 -2 -2 -1 -1 -1 -1 -1 -1 -0 -0 -0 0 0 1 1 1
-6 -6 -6 -6 -6 -6 -7 -7 -7 -7 -7 -7 -6 -6 -7 -7 -7 -6 -6 -6 -5 -5 -5 -4 -4 -3 -3 -2 -2 -2 -2 -2 -1 -1 -1 -1 -1 -0 -0 -0 0 1 1 1
-6 -7 -7 -7 -7 -7 -8 -8 -8 -8 -8 -8 -7 -7 -7 -7 -7 -7 -6 -6 -5 -5 -5 -4 -4 -3 -3 -3 -2 -2 -2 -2 -1 -1 -1 -1 -1 -1 -1 -1 -0 0 1 1
-7 -7 -8 -8 -8 -8 -8 -8 -8 -8 -8 -8 -8 -8 -8 -7 -7 -7 -6 -6 -6 -5 -5 -4 -4 -4 -3 -3 -2 -2 -2 -2 -2 -2 -1 -1 -1 -1 -1 -1 -0 0 0 0

GEFSNGP_850_meantemp_156.txt.gz
Temperature
2 2 2 2 3 3 2 2 2 3 4 5 5 4 5 5 5 5 5 5 5 4 4 5 5 5 5 5 6 6 6 6 7 7 7 7 7 8 8 8 9 9 9 9
1 2 2 2 3 3 3 3 3 3 4 5 4 4 4 4 4 4 5 4 4 4 4 4 4 5 5 5 5 6 6 6 6 6 7 7 7 7 7 8 8 9 9 9
1 1 1 2 3 3 3 3 3 3 4 4 4 4 4 4 4 4 4 4 4 4 4 4 4 4 5 5 5 5 5 5 6 6 6 6 6 6 7 7 8 8 8 9
0 0 1 3 4 4 3 4 3 3 3 3 3 4 4 5 4 4 4 4 3 3 3 4 4 4 4 4 5 5 5 5 5 5 5 6 6 6 6 7 7 7 8 8
0 -0 1 2 3 3 3 3 3 3 3 3 4 3 4 5 4 4 3 3 3 3 3 3 4 4 4 4 4 4 5 5 5 5 5 5 5 5 6 6 7 7 7 8
0 0 1 3 4 4 3 2 3 3 2 3 2 1 2 4 3 3 3 3 3 3 3 3 3 3 3 4 4 4 4 4 4 4 5 5 5 5 5 6 6 7 7 7
0 0 1 2 3 4 2 2 4 4 3 3 2 2 3 3 3 3 2 2 2 2 2 3 3 3 3 3 3 3 3 4 4 4 4 5 5 5 5 6 6 6 6 7
-0 0 1 3 3 2 3 4 4 4 4 3 3 3 3 3 2 2 2 2 2 2 2 2 2 2 2 3 3 3 3 3 4 4 4 4 5 5 5 5 5 6 6 6
1 2 3 4 4 5 5 4 4 4 4 3 3 3 2 2 2 2 2 1 1 1 1 2 2 2 2 2 2 2 3 3 3 4 4 4 4 5 5 5 5 5 5 5
-0 1 2 3 4 4 4 4 4 3 3 3 2 2 2 1 1 1 1 1 1 1 1 1 2 2 2 2 2 2 2 2 3 3 4 4 4 4 5 5 5 5 5 5
0 1 1 3 4 4 4 3 3 3 3 2 2 2 1 1 1 1 1 1 0 0 0 1 1 1 2 2 2 2 2 2 2 3 3 3 4 4 4 4 4 4 4 5
1 2 1 2 4 4 3 3 3 2 2 2 1 1 1 1 0 0 0 0 0 0 0 1 1 1 1 2 2 2 2 2 2 2 3 3 3 4 4 4 4 4 4 4
3 4 3 3 3 3 3 2 2 2 1 1 1 1 0 0 0 0 0 0 -0 -0 0 0 1 1 1 1 1 1 1 1 2 2 2 3 3 3 3 4 4 4 4 4
3 3 2 2 2 2 2 2 1 1 1 1 0 0 -0 -0 -0 -0 -0 -0 -0 -0 -0 -0 0 0 1 1 1 1 1 1 1 2 2 2 2 3 3 3 3 3 4 4
2 2 2 2 2 2 1 1 0 0 0 0 -0 -0 -1 -1 -1 -1 -1 -1 -1 -1 -1 -0 -0 0 0 0 0 1 1 1 1 1 2 2 2 2 2 2 3 3 3 3
2 1 1 1 1 1 0 0 -0 -0 -0 -1 -1 -1 -1 -1 -1 -1 -1 -1 -1 -1 -1 -1 -1 -1 -1 -0 -0 0 0 1 1 1 1 2 2 2 2 2 2 2 2 3
0 0 0 0 0 0 -0 -1 -1 -1 -1 -1 -1 -2 -2 -2 -2 -2 -2 -2 -2 -2 -2 -2 -1 -1 -1 -1 -1 -0 -0 0 1 1 1 1 1 1 1 2 2 2 2 2
1 0 0 -0 -0 -1 -1 -1 -2 -2 -2 -2 -2 -2 -2 -3 -3 -2 -2 -2 -2 -2 -2 -2 -2 -2 -2 -2 -1 -1 -1 -0 -0 -0 0 1 1 1 1 1 1 2 2 2
0 -0 -0 -1 -1 -1 -2 -2 -2 -2 -3 -3 -3 -3 -3 -3 -3 -3 -3 -3 -3 -3 -2 -2 -2 -3 -2 -2 -2 -2 -1 -1 -1 -1 -0 -0 0 0 0 0 1 1 1 1
-1 -1 -1 -1 -2 -2 -2 -3 -3 -3 -3 -3 -3 -3 -4 -3 -4 -4 -3 -3 -3 -3 -3 -3 -3 -3 -3 -3 -3 -2 -2 -2 -2 -1 -1 -1 -1 -0 -0 -0 0 1 1 1
-1 -2 -2 -2 -3 -3 -3 -3 -4 -4 -4 -4 -4 -4 -4 -4 -4 -4 -4 -4 -4 -4 -4 -4 -4 -3 -3 -3 -3 -3 -3 -3 -2 -2 -2 -1 -1 -1 -1 -1 -0 0 0 1
-2 -3 -3 -3 -4 -4 -4 -4 -4 -5 -5 -5 -5 -5 -5 -5 -5 -5 -5 -5 -4 -5 -5 -4 -4 -4 -4 -4 -4 -4 -3 -3 -3 -2 -2 -2 -2 -2 -1 -1 -1 -1 -0 0
-3 -4 -4 -4 -4 -5 -5 -5 -5 -5 -5 -5 -6 -6 -6 -6 -6 -6 -6 -5 -5 -5 -5 -5 -5 -5 -4 -4 -4 -4 -4 -3 -3 -3 -3 -2 -2 -2 -2 -1 -1 -1 -1 -0
-4 -5 -5 -5 -5 -6 -6 -6 -6 -6 -6 -6 -6 -6 -6 -6 -6 -6 -6 -6 -6 -6 -6 -5 -5 -5 -5 -4 -4 -4 -4 -3 -3 -3 -2 -2 -2 -2 -2 -2 -2 -1 -1 -1
-5 -5 -6 -6 -6 -6 -6 -7 -7 -7 -7 -7 -7 -7 -7 -7 -7 -7 -7 -6 -6 -6 -6 -6 -5 -5 -5 -4 -4 -4 -4 -3 -3 -3 -3 -3 -2 -2 -2 -2 -2 -1 -1 -1
-6 -6 -7 -7 -7 -7 -7 -7 -8 -8 -8 -8 -7 -7 -7 -7 -7 -7 -7 -7 -7 -6 -6 -6 -6 -5 -5 -5 -4 -4 -4 -3 -3 -3 -3 -3 -3 -3 -2 -2 -2 -2 -1 -1
-7 -7 -7 -7 -8 -8 -8 -8 -8 -8 -8 -9 -8 -8 -8 -8 -8 -8 -7 -7 -7 -7 -7 -6 -6 -5 -5 -5 -4 -4 -4 -4 -3 -3 -3 -3 -3 -3 -3 -2 -2 -2 -2 -1

GEFSNGP_850_meantemp_162.txt.gz
Temperature
1 2 2 2 2 2 1 1 2 2 3 4 4 3 3 4 4 4 4 4 4 4 4 4 4 4 4 5 5 5 5 5 5 5 5 5 5 6 6 6 6 6 6 7
1 2 1 2 2 2 2 2 2 2 3 4 4 3 3 3 3 3 4 4 4 3 3 3 3 4 4 4 5 5 5 4 5 5 5 5 5 5 6 6 6 6 6 6
1 1 1 2 2 2 2 1 1 2 3 3 3 2 3 3 3 3 4 4 3 3 3 3 3 3 3 4 4 4 4 4 4 4 5 5 5 5 5 5 5 5 6 6
1 0 2 4 3 3 2 2 2 2 2 2 2 3 4 4 4 4 4 3 3 3 3 3 3 3 3 4 4 4 4 4 4 4 4 5 5 5 5 5 5 5 5 5
0 0 1 2 3 2 2 2 2 2 2 2 3 2 3 5 4 4 3 3 3 3 3 3 3 3 3 3 3 3 3 3 4 4 4 4 4 4 4 4 4 4 4 5
1 1 2 4 3 3 2 2 2 2 2 2 2 1 2 4 4 4 3 3 3 2 2 3 2 3 3 3 3 3 3 3 3 3 3 3 3 4 4 4 4 4 4 5
1 1 2 2 2 3 2 3 4 3 3 3 1 2 4 4 3 3 3 3 2 2 2 2 2 2 2 2 2 2 2 2 2 2 2 3 3 3 4 4 4 4 4 4
0 1 2 3 2 2 3 4 4 4 4 3 3 3 3 3 3 3 3 2 2 2 2 2 2 2 2 2 2 2 2 2 2 2 2 2 3 3 3 3 4 4 4 4
1 3 3 3 3 4 4 4 4 4 4 3 3 3 3 3 2 2 2 2 2 2 2 2 2 1 1 1 1 1 1 1 2 2 2 2 2 3 3 3 3 3 3 4
-1 0 1 3 4 4 4 4 4 4 3 3 2 2 2 2 2 2 2 2 1 1 1 1 1 1 1 1 1 1 1 1 1 1 2 2 2 2 2 2 3 3 3 3
-1 0 1 3 4 4 4 4 4 3 3 2 2 2 2 2 2 1 1 1 1 1 1 1 1 1 1 1 1 1 1 1 1 1 1 1 2 2 2 2 2 2 2 3
1 2 1 2 4 4 4 3 3 3 2 2 2 2 1 1 1 1 1 1 1 1 0 0 0 0 0 0 0 0 0 1 1 1 1 1 1 2 2 2 2 2 3 2
3 4 3 3 3 3 3 2 2 2 2 1 1 1 1 1 1 0 0 -0 -0 0 -0 -0 -0 0 0 -0 -0 -0 -0 0 0 0 1 1 1 1 1 2 2 2 2 2
3 3 2 2 2 2 2 2 1 1 1 1 1 0 0 0 -0 -0 -0 -0 -0 -0 -1 -1 -1 -0 -0 -0 -0 -0 -0 -0 -0 -0 0 0 0 1 1 1 1 2 2 2
2 2 2 2 2 2 1 1 1 1 1 0 0 -0 -0 -1 -1 -1 -1 -1 -1 -1 -1 -1 -1 -1 -1 -1 -1 -1 -1 -1 -0 -0 -0 -0 0 0 0 1 1 1 1 2
2 1 1 1 1 1 1 0 -0 -0 -0 -0 -1 -1 -1 -1 -1 -1 -1 -1 -1 -1 -1 -1 -2 -1 -1 -1 -1 -1 -1 -1 -1 -1 -1 -1 -0 -0 -0 0 0 1 1 1
0 0 0 0 0 0 -0 -0 -1 -1 -1 -1 -1 -1 -2 -2 -2 -2 -2 -2 -2 -2 -2 -2 -2 -2 -2 -2 -2 -2 -2 -2 -1 -1 -1 -1 -1 -1 -1 -0 -0 -0 0 0
0 0 0 -0 -0 -1 -1 -1 -1 -1 -2 -2 -2 -2 -2 -2 -2 -2 -2 -2 -2 -2 -2 -2 -3 -2 -2 -2 -2 -2 -2 -2 -2 -2 -2 -2 -1 -1 -1 -1 -1 -0 -0 -0
-0 -0 -0 -1 -1 -1 -1 -2 -2 -2 -2 -2 -3 -3 -3 -3 -3 -3 -3 -3 -3 -3 -3 -3 -3 -3 -3 -3 -3 -3 -3 -3 -3 -2 -2 -2 -2 -2 -1 -1 -1 -1 -1 -1
-1 -1 -1 -1 -1 -2 -2 -2 -2 -3 -3 -3 -3 -3 -3 -3 -4 -4 -3 -3 -3 -4 -4 -4 -4 -4 -4 -4 -4 -4 -3 -3 -3 -3 -3 -3 -3 -2 -2 -2 -2 -2 -1 -1
-1 -1 -2 -2 -2 -2 -3 -3 -3 -3 -4 -4 -4 -4 -4 -4 -4 -4 -4 -4 -4 -4 -4 -4 -4 -4 -4 -4 -4 -4 -4 -4 -4 -4 -4 -3 -3 -3 -2 -2 -2 -2 -2 -2
-2 -2 -2 -3 -3 -3 -3 -4 -4 -4 -4 -5 -5 -5 -5 -5 -5 -5 -5 -5 -5 -5 -5 -5 -5 -5 -5 -5 -5 -5 -4 -4 -4 -4 -4 -4 -3 -3 -3 -3 -3 -2 -2 -2
-3 -3 -3 -4 -4 -4 -4 -5 -5 -5 -5 -5 -5 -6 -6 -6 -6 -6 -6 -5 -6 -5 -6 -5 -5 -5 -5 -5 -5 -5 -5 -5 -4 -4 -4 -4 -4 -3 -3 -3 -3 -3 -2 -2
-4 -4 -5 -5 -5 -5 -5 -5 -6 -6 -6 -6 -6 -6 -6 -6 -6 -6 -7 -6 -6 -6 -6 -6 -6 -6 -6 -5 -5 -5 -5 -5 -5 -5 -4 -4 -4 -4 -3 -3 -3 -3 -3 -2
-5 -5 -5 -6 -6 -6 -6 -6 -6 -6 -6 -6 -6 -7 -7 -7 -7 -7 -7 -7 -6 -6 -6 -6 -6 -6 -6 -6 -6 -5 -5 -5 -5 -5 -5 -4 -4 -4 -4 -3 -3 -3 -3 -3
-6 -6 -6 -6 -7 -7 -7 -7 -7 -7 -7 -7 -7 -7 -7 -7 -7 -7 -7 -7 -7 -7 -7 -7 -6 -6 -6 -6 -6 -6 -6 -5 -5 -5 -5 -4 -4 -4 -4 -4 -3 -3 -3 -3
-6 -7 -7 -7 -7 -8 -8 -8 -8 -8 -8 -8 -8 -8 -8 -8 -8 -8 -7 -7 -7 -7 -7 -7 -7 -7 -6 -6 -6 -6 -5 -5 -5 -4 -4 -4 -4 -4 -4 -4 -3 -3 -3 -3